Showing default

SIRIUS XM-9, 62259

Orbit data source: Space-Track

SIRIUS XM-9, 62259 is a payload satellite owned by Sirius XM (US) in GEO that was launched on Thu, 05 Dec 2024 UTC via an FALCON 9 launch vehicle from the Air Force Eastern Test Range (AFETR). Payload-class satellites include a variety of spacecraft equipped with specific instruments for various scientific and technological missions. These include communications satellites like Starlink; space stations such as the ISS; scientific satellites like the Hubble; Earth observation satellites from companies like Planet Labs, Umbra, and HawkEye 360; GPS; miniature CubeSats for education and research; and military/defense satellites.

Loading next visibility...
Identifier
62259, 2024-234A
Orbit
GEO
Country
Flag of USUS
Related business
Manufacturer
Maxar Space Sol
Mission
Operational Commercial Communications
Bus & Motor
LS-1300, R-4D
Mass
~7,000 kg wet, ~2,884 kg dry
Launch date (UTC)
2024-12-05 (1 year ago)
Launch vehicle
FALCON 9
Launch site
Air Force Eastern Test Range (AFETR)
Object type
Payload
Rocket body
Debris
Shape & HBR
Box + 2 Pan, 15.0 m
Radar Cross Section
98.149 m², Large (>1 m²)

Expand to show TLE details & history
Last TLE update: 18 hours ago

TLE from 18 hours ago
0 SIRIUS XM-9
1 62259U 24234A   26144.98517014 -.00000208  00000-0  00000+0 0  9991
2 62259   0.0132 328.8981 0004935 345.1048 198.0809  1.00272768  5347
Epoch: 2026-05-24T23:38Z
TLE epoch observation values (Epoch: 2026-05-24T23:38:38.700Z)
Latitude
-0.00795°
Longitude
-85.17115°
Altitude
35,805.506 km
Speed
3.073 km/s
True Right ascension
10h 08m 16s
True Declination
0° 00' 29"
Sunlit
Object was in daylight at epoch
Visualization orbit readout
Latitude
Unknown
Longitude
Unknown
Altitude
Unknown
Speed
Unknown
Apparent Right ascension
Unknown
Apparent Declination
Unknown
Sunlit
N/A
Visualization observer readout
Local Sidereal Time
03:07:25
Azimuth
Unknown
Elevation
Unknown
Doppler factor
Unknown
Orbital elements
Apogee altitude
35,808.198 km
Perigee altitude
35,766.581 km
Semi-major axis
42,165.527 km
Eccentricity
0.00049
Inclination
0.0132°
RAAN
328.8981°
Arg. of periapsis
345.1048°
True anomaly
198.06336°
Mean anomaly
198.0809°
Eccentric anomaly
198.07213°
Mean motion
0.25067 °/min
Orbital period
1,436.14 mins
BSTAR
0
Loading maneuver chart data...
Computing Atmospheric mass density...
Loading historical data...
Loading historical data...
Loading historical data...
Loading historical data...
Loading historical data...
Loading historical data...
Loading historical data...
Other satellites on launch #234 in the year 2024 (2024-12-05 UTC)

Documentation

Showing up to 5 results
|